Location: Ch�teau-Arnoux
(44.0814°N, 6.0027°E)
Time: 07:39:02
(UTC+00:00)

Cosmos 2112 Rocket - Pass Details

Date: 15 November 2019
Orbit: 755 x 788 km, 74.1° (Epoch: 15 December)

Event Time Altitude Azimuth Distance (km) Brightness Sun altitude
Exits shadow 04:00:26 36° 358° (N) 1,232 5.0 -26.9°
Maximum altitude 04:02:33 64° 67° (ENE) 862 4.3 -26.5°
Drops below altitude 10° 04:07:50 10° 149° (SSE) 2,337 6.9 -25.6°
Sets 04:10:15 0° 152° (SSE) 3,264 7.6 -25.2°
